Weather History for K1V6 - January, 2014

Change the Weather History Date:

Wednesday, January 8, 2014

  Actual Average (KPUB) Record (KPUB)
Temperature  
Mean Temperature 36 °F 30 °F  
Max Temperature 41 °F 47 °F 73 °F (2003)
Min Temperature 28 °F 14 °F -12 °F (1988)
Degree Days  
Heating Degree Days 30 35  
Month to date heating degree days 280  
Since 1 July heating degree days 2643  
Cooling Degree Days 0 0  
Month to date cooling degree days 0  
Year to date cooling degree days 0  
Moisture  
Dew Point 22 °F    
Average Humidity 61    
Maximum Humidity 80    
Minimum Humidity 45    
Precipitation  
Precipitation 0.00 in 0.01 in 0.68 in (1891)
Month to date precipitation 0.09  
Year to date precipitation 0.09  
Snow  
Snow 0.00 in 0.20 in 10.00 in (1891)
Month to date snowfall 1.6  
Since 1 July snowfall 13.1  
Snow Depth -    
Sea Level Pressure  
Sea Level Pressure 30.01 in    
Wind  
Wind Speed 8 mph (ENE)    
Max Wind Speed 20 mph    
Max Gust Speed 25 mph    
Visibility 10 miles    
Events      
T = Trace of Precipitation, MM = Missing Value Source: NWS Daily Summary

Daily Weather History Graph

Daily Weather History Graph

Search for Another Location

Airport or City:

Trip Planner

Search our weather history database for the weather conditions in past years. The results will help you decide how hot, cold, wet, or windy it might be!

Date:

Astronomy

Jan. 08, 2014 Rise Set
Actual Time 7:17 AM MST 4:56 PM MST
Civil Twilight 6:48 AM MST 5:26 PM MST
Nautical Twilight 6:15 AM MST 5:59 PM MST
Astronomical Twilight 5:43 AM MST 6:31 PM MST
Moon 11:48 AM MST (1/8) 12:28 AM MST (1/8)
Length of Visible Light 10h 37m
Length of Day
9h 38m
First Quarter, 56% of the Moon is Illuminated
Jan 8
First Quarter
Jan 15
Full
Jan 23
Last Quarter
Jan 30
New
Feb 6
First Quarter

Hourly Weather History & Observations

Time (MST) Temp. Windchill Dew Point Humidity Pressure Visibility Wind Dir Wind Speed Gust Speed Precip Events Conditions
12:15 AM 35.6 °F 26.6 °F 21.2 °F 56% 29.92 in 10.0 mi West 13.8 mph - N/A   Clear
12:35 AM 35.6 °F 25.9 °F 21.2 °F 56% 29.92 in 10.0 mi West 16.1 mph - N/A   Clear
12:55 AM 37.4 °F 27.2 °F 21.2 °F 52% 29.91 in 10.0 mi West 19.6 mph 25.3 mph N/A   Clear
1:15 AM 35.6 °F 24.8 °F 21.2 °F 56% 29.92 in 10.0 mi WNW 19.6 mph - N/A   Clear
1:35 AM 33.8 °F 25.8 °F 21.2 °F 60% 29.94 in 10.0 mi West 10.4 mph - N/A   Clear
1:55 AM 35.6 °F 26.2 °F 21.2 °F 56% 29.94 in 10.0 mi WNW 15.0 mph - N/A   Clear
2:15 AM 37.4 °F 28.5 °F 19.4 °F 48% 29.95 in 10.0 mi WNW 15.0 mph - N/A   Clear
2:35 AM 35.6 °F 26.6 °F 21.2 °F 56% 29.95 in 10.0 mi WNW 13.8 mph - N/A   Clear
2:55 AM 33.8 °F 24.8 °F 21.2 °F 60% 29.95 in 10.0 mi WNW 12.7 mph - N/A   Scattered Clouds
3:15 AM 33.8 °F 25.3 °F 21.2 °F 60% 29.96 in 10.0 mi WNW 11.5 mph - N/A   Scattered Clouds
3:35 AM 35.6 °F 28.0 °F 21.2 °F 56% 29.97 in 10.0 mi WNW 10.4 mph - N/A   Clear
3:55 AM 35.6 °F 32.8 °F 23.0 °F 60% 29.97 in 10.0 mi East 3.5 mph - N/A   Scattered Clouds
4:15 AM 33.8 °F 26.4 °F 23.0 °F 65% 29.98 in 10.0 mi East 9.2 mph - N/A   Mostly Cloudy
4:35 AM 33.8 °F 28.6 °F 23.0 °F 65% 29.99 in 10.0 mi East 5.8 mph - N/A   Overcast
4:55 AM 33.8 °F 28.6 °F 23.0 °F 65% 29.99 in 10.0 mi East 5.8 mph - N/A   Overcast
5:15 AM 32.0 °F 26.4 °F 23.0 °F 69% 30.00 in 10.0 mi NE 5.8 mph - N/A   Overcast
5:35 AM 32.0 °F 24.8 °F 23.0 °F 69% 30.00 in 10.0 mi NNE 8.1 mph - N/A   Overcast
5:55 AM 32.0 °F 24.2 °F 23.0 °F 69% 30.01 in 10.0 mi NNE 9.2 mph - N/A   Mostly Cloudy
6:15 AM 30.2 °F 24.3 °F 21.2 °F 69% 30.02 in 10.0 mi NNE 5.8 mph - N/A   Scattered Clouds
6:20 AM 30.2 °F 24.3 °F 21.2 °F 69% 30.02 in 10.0 mi NNE 5.8 mph - N/A   Scattered Clouds
10:10 AM 35.6 °F - 23.0 °F 60% 30.11 in 10.0 mi Calm Calm - N/A   Clear
10:30 AM 37.4 °F - 21.2 °F 52% 30.10 in 10.0 mi Calm Calm - N/A   Clear
10:50 AM 37.4 °F - 21.2 °F 52% 30.09 in 10.0 mi Calm Calm - N/A   Clear
11:10 AM 37.4 °F - 21.2 °F 52% 30.09 in 10.0 mi Calm Calm - N/A   Clear
11:30 AM 37.4 °F 34.9 °F 21.2 °F 52% 30.06 in 10.0 mi ESE 3.5 mph - N/A   Clear
11:50 AM 37.4 °F 33.8 °F 21.2 °F 52% 30.05 in 10.0 mi ESE 4.6 mph - N/A   Clear
12:10 PM 37.4 °F 33.8 °F 21.2 °F 52% 30.04 in 10.0 mi East 4.6 mph - N/A   Clear
12:30 PM 37.4 °F 34.9 °F 21.2 °F 52% 30.04 in 10.0 mi SE 3.5 mph - N/A   Clear
12:50 PM 37.4 °F 34.9 °F 21.2 °F 52% 30.03 in 10.0 mi East 3.5 mph - N/A   Clear
1:10 PM 37.4 °F 32.8 °F 21.2 °F 52% 30.02 in 10.0 mi East 5.8 mph - N/A   Clear
1:30 PM 37.4 °F 32.8 °F 21.2 °F 52% 30.02 in 10.0 mi ESE 5.8 mph - N/A   Clear
1:50 PM 37.4 °F 34.9 °F 21.2 °F 52% 30.01 in 10.0 mi East 3.5 mph - N/A   Clear
2:10 PM 41.0 °F 37.1 °F 21.2 °F 45% 30.01 in 10.0 mi East 5.8 mph - N/A   Clear
2:30 PM 41.0 °F 39.0 °F 21.2 °F 45% 30.01 in 10.0 mi East 3.5 mph - N/A   Clear
2:50 PM 41.0 °F 37.1 °F 21.2 °F 45% 30.01 in 10.0 mi East 5.8 mph - N/A   Clear
3:10 PM 41.0 °F 36.4 °F 21.2 °F 45% 30.02 in 10.0 mi SE 6.9 mph - N/A   Clear
3:30 PM 41.0 °F 39.0 °F 21.2 °F 45% 30.02 in 10.0 mi ENE 3.5 mph - N/A   Clear
3:50 PM 41.0 °F 39.0 °F 21.2 °F 45% 30.02 in 10.0 mi ESE 3.5 mph - N/A   Clear
4:10 PM 37.4 °F 34.9 °F 21.2 °F 52% 30.02 in 10.0 mi East 3.5 mph - N/A   Clear
4:30 PM 35.6 °F 31.7 °F 21.2 °F 56% 30.02 in 10.0 mi ENE 4.6 mph - N/A   Clear
4:50 PM 35.6 °F - 21.2 °F 56% 30.02 in 10.0 mi Calm Calm - N/A   Scattered Clouds
5:10 PM 35.6 °F - 21.2 °F 56% 30.02 in 10.0 mi Calm Calm - N/A   Clear
5:30 PM 33.8 °F - 21.2 °F 60% 30.03 in 10.0 mi Calm Calm - N/A   Clear
5:50 PM 33.8 °F - 21.2 °F 60% 30.03 in 10.0 mi Calm Calm - N/A   Clear
6:10 PM 32.0 °F - 21.2 °F 64% 30.03 in 10.0 mi Calm Calm - N/A   Clear
6:30 PM 33.8 °F - 21.2 °F 60% 30.04 in 10.0 mi Calm Calm - N/A   Clear
6:50 PM 32.0 °F - 21.2 °F 64% 30.05 in 10.0 mi Calm Calm - N/A   Clear
7:10 PM 30.2 °F - 21.2 °F 69% 30.05 in 10.0 mi Calm Calm - N/A   Clear
7:30 PM 30.2 °F 26.7 °F 23.0 °F 75% 30.05 in 10.0 mi NNE 3.5 mph - N/A   Scattered Clouds
7:50 PM 30.2 °F 26.7 °F 23.0 °F 75% 30.06 in 10.0 mi NNE 3.5 mph - N/A   Mostly Cloudy
8:10 PM 30.2 °F 26.7 °F 23.0 °F 75% 30.05 in 10.0 mi NNE 3.5 mph - N/A   Scattered Clouds
8:30 PM 30.2 °F 25.4 °F 23.0 °F 75% 30.05 in 10.0 mi North 4.6 mph - N/A   Clear
8:50 PM 30.2 °F 25.4 °F 23.0 °F 75% 30.05 in 10.0 mi North 4.6 mph - N/A   Mostly Cloudy
9:10 PM 30.2 °F - 23.0 °F 75% 30.05 in 10.0 mi Calm Calm - N/A   Overcast
9:30 PM 30.2 °F - 23.0 °F 75% 30.05 in 10.0 mi Calm Calm - N/A   Overcast
9:50 PM 30.2 °F - 23.0 °F 75% 30.05 in 10.0 mi Calm Calm - N/A   Overcast
10:10 PM 30.2 °F - 23.0 °F 75% 30.04 in 10.0 mi Calm Calm - N/A   Overcast
10:30 PM 30.2 °F 26.7 °F 23.0 °F 75% 30.03 in 10.0 mi ENE 3.5 mph - N/A   Overcast
10:50 PM 30.2 °F 24.3 °F 23.0 °F 75% 30.02 in 10.0 mi East 5.8 mph - N/A   Overcast
11:10 PM 30.2 °F 26.7 °F 24.8 °F 80% 30.02 in 10.0 mi East 3.5 mph - N/A   Overcast
11:30 PM 30.2 °F - 23.0 °F 75% 30.02 in 10.0 mi Calm Calm - N/A   Overcast
11:50 PM 28.4 °F - 23.0 °F 80% 30.00 in 10.0 mi Calm Calm - N/A   Overcast